Voltar ao catálogo

PEGASUS R/B(2)

AtivoLEO
NORAD 25484·ROCKET BODY·🇺🇸 United States

Lançado Sep 23, 1998 de Cape Canaveral Space Force Station

Loading…

Próximas Passagens (próximas 24 horas)

TLE

AtualizadoSource: Space-Track

Época: Sep 14, 2026, 15:03 UTC

1 25484U 98053K   26257.62720814  .00000038  00000-0  51994-4 0  9993
2 25484  44.5293 118.6767 0063250 238.3916 149.5578 14.43556855473500

Acompanhe PEGASUS R/B(2) em tempo real com AllMySat

Download on the App Store